Weather History for Pincher Creek, AB

Change the Weather History Date:

Friday, March 8, 2013

  Actual Average Record
Temperature  
Mean Temperature 22 °F -  
Max Temperature 39 °F 31 °F 57 °F (2001)
Min Temperature 6 °F 11 °F -32 °F (2002)
Degree Days  
Heating Degree Days 42    
Moisture  
Dew Point 14 °F    
Average Humidity 87    
Maximum Humidity 100    
Minimum Humidity 49    
Precipitation  
Precipitation 0.00 in - - ()
Sea Level Pressure  
Sea Level Pressure 30.10 in    
Wind  
Wind Speed 6 mph ()    
Max Wind Speed 16 mph    
Max Gust Speed 23 mph    
Visibility 4.5 miles    
Events Fog , Snow    
Averages and records for this station are not official NWS values.
T = Trace of Precipitation, MM = Missing Value Source: Averaged Metar Reports

Daily Weather History Graph

Daily Weather History Graph

Search for Another Location

Airport:

Trip Planner

Search our weather history database for the weather conditions in past years. The results will help you decide how hot, cold, wet, or windy it might be!

Date:

Astronomy

Mar. 08, 2013 Rise Set
Actual Time 7:03 AM MST 6:30 PM MST
Civil Twilight 6:31 AM MST 7:02 PM MST
Nautical Twilight 5:54 AM MST 7:39 PM MST
Astronomical Twilight 5:17 AM MST 8:17 PM MST
Moon 5:05 AM MST (3/8) 3:17 PM MST (3/8)
Length of Visible Light 12h 30m
Length of Day
11h 27m
Waning Crescent, 11% of the Moon is Illuminated
Mar 8
Waning Crescent
Mar 11
New
Mar 19
First Quarter
Mar 27
Full
Apr 2
Last Quarter

Hourly Weather History & Observations

Time (MST) Temp. Windchill Dew Point Humidity Pressure Visibility Wind Dir Wind Speed Gust Speed Precip Events Conditions
12:00 AM 12.2 °F - 10.4 °F 92% 30.19 in 4.0 mi Variable 2.3 mph - N/A   Mostly Cloudy
1:00 AM 10.4 °F 4.0 °F 8.6 °F 92% 30.19 in 4.0 mi WSW 3.5 mph - N/A   Clear
1:57 AM 6.8 °F -2.0 °F 6.8 °F 100% 30.19 in 4.0 mi West 4.6 mph - N/A   Partly Cloudy
2:00 AM 6.8 °F -2.0 °F 6.8 °F 100% 30.19 in 4.0 mi West 4.6 mph - N/A   Scattered Clouds
2:05 AM 8.6 °F 0.1 °F 6.8 °F 92% 30.19 in 4.0 mi West 4.6 mph - N/A   Mostly Cloudy
3:00 AM 12.2 °F 2.9 °F 12.2 °F 100% 30.15 in 4.0 mi WSW 5.8 mph - N/A   Overcast
3:47 AM 14.0 °F 6.5 °F 12.2 °F 93% 30.13 in 2.5 mi West 4.6 mph - N/A   Overcast
4:00 AM 12.2 °F 4.3 °F 12.2 °F 100% 30.13 in 2.5 mi WNW 4.6 mph - N/A   Overcast
4:02 AM 12.2 °F 4.3 °F 10.4 °F 92% 30.13 in 3.0 mi West 4.6 mph - N/A   Overcast
4:34 AM 12.2 °F 1.7 °F 12.2 °F 100% 30.12 in 2.0 mi West 6.9 mph - N/A   Overcast
4:39 AM 12.2 °F 1.7 °F 12.2 °F 100% 30.12 in 1.0 mi West 6.9 mph - N/A Snow Light Snow
4:48 AM 12.2 °F -0.2 °F 12.2 °F 100% 30.12 in 0.4 mi West 9.2 mph - N/A Fog Light Freezing Fog
4:51 AM 12.2 °F 0.7 °F 12.2 °F 100% 30.12 in 0.4 mi West 8.1 mph - N/A Fog Light Freezing Fog
4:52 AM 12.2 °F 0.7 °F 12.2 °F 100% 30.12 in 0.4 mi West 8.1 mph - N/A Snow Snow
5:00 AM 12.2 °F -0.2 °F 12.2 °F 100% 30.12 in 0.4 mi WNW 9.2 mph - N/A Snow Snow
5:06 AM 12.2 °F -1.0 °F 12.2 °F 100% 30.11 in 0.2 mi WNW 10.4 mph - N/A Snow Heavy Snow
5:45 AM 12.2 °F -1.8 °F 12.2 °F 100% 30.10 in 0.4 mi WNW 11.5 mph - N/A Snow Snow
6:00 AM 12.2 °F -0.2 °F 12.2 °F 100% 30.11 in 0.4 mi WNW 9.2 mph - N/A Snow Snow
6:18 AM 10.4 °F 0.8 °F 10.4 °F 100% 30.11 in 1.2 mi NW 5.8 mph - N/A Snow Light Snow
6:20 AM 10.4 °F -0.4 °F 10.4 °F 100% 30.11 in 1.2 mi NW 6.9 mph - N/A   Overcast
6:28 AM 10.4 °F -1.5 °F 10.4 °F 100% 30.11 in 0.5 mi NW 8.1 mph - N/A Fog Light Freezing Fog
6:35 AM 10.4 °F -2.4 °F 8.6 °F 92% 30.11 in 0.6 mi NW 9.2 mph - N/A   Mist
6:59 AM 8.6 °F -2.6 °F 8.6 °F 100% 30.12 in 0.5 mi NNW 6.9 mph - N/A Fog Light Freezing Fog
7:00 AM 8.6 °F -2.6 °F 8.6 °F 100% 30.12 in 0.5 mi NNW 6.9 mph - N/A Fog Light Freezing Fog
7:07 AM 8.6 °F -1.3 °F 6.8 °F 92% 30.12 in 0.6 mi NNW 5.8 mph - N/A   Mostly Cloudy
7:09 AM 8.6 °F -1.3 °F 6.8 °F 92% 30.12 in 1.2 mi NNW 5.8 mph - N/A   Scattered Clouds
7:15 AM 8.6 °F -2.6 °F 6.8 °F 92% 30.12 in 3.0 mi NNW 6.9 mph - N/A   Scattered Clouds
7:43 AM 10.4 °F -0.4 °F 10.4 °F 100% 30.11 in 6.0 mi NW 6.9 mph - N/A   Clear
8:00 AM 14.0 °F 5.1 °F 14.0 °F 100% 30.11 in 9.0 mi WNW 5.8 mph - N/A   Clear
9:00 AM 23.0 °F 14.7 °F 23.0 °F 100% 30.10 in 9.0 mi West 6.9 mph - N/A   Clear
10:00 AM 28.4 °F 21.2 °F 23.0 °F 80% 30.06 in 9.0 mi WNW 6.9 mph - N/A   Clear
11:00 AM 37.4 °F 29.3 °F 24.8 °F 60% 30.04 in 9.0 mi WSW 12.7 mph - N/A   Scattered Clouds
12:00 PM 37.4 °F 29.8 °F 24.8 °F 60% 30.04 in 9.0 mi West 11.5 mph 19.6 mph N/A   Overcast
1:00 PM 39.2 °F 30.5 °F 23.0 °F 52% 30.02 in 9.0 mi West 16.1 mph - N/A   Overcast
2:00 PM 39.2 °F 30.8 °F 21.2 °F 49% 30.02 in 9.0 mi WSW 15.0 mph 21.9 mph N/A   Overcast
3:00 PM 37.4 °F 28.2 °F 23.0 °F 56% 30.00 in 9.0 mi WSW 16.1 mph 23.0 mph N/A   Overcast
4:00 PM 37.4 °F 29.8 °F 23.0 °F 56% 30.00 in 9.0 mi West 11.5 mph - N/A   Mostly Cloudy
5:00 PM 37.4 °F 28.5 °F 23.0 °F 56% 30.01 in 9.0 mi West 15.0 mph - N/A   Clear
6:00 PM 35.6 °F 26.6 °F 21.2 °F 56% 30.02 in 9.0 mi WSW 13.8 mph 20.7 mph N/A   Clear
7:00 PM 32.0 °F 21.6 °F 21.2 °F 64% 30.05 in 9.0 mi WSW 15.0 mph - N/A   Clear
8:00 PM 30.2 °F 21.9 °F 23.0 °F 75% 30.07 in 9.0 mi West 9.2 mph - N/A   Clear
9:00 PM 30.2 °F 20.2 °F 23.0 °F 75% 30.05 in 9.0 mi WSW 12.7 mph - N/A   Clear
10:00 PM 26.6 °F 19.1 °F 21.2 °F 80% 30.05 in 9.0 mi West 6.9 mph - N/A   Clear
11:00 PM 26.6 °F 19.1 °F 19.4 °F 74% 30.05 in 9.0 mi WSW 6.9 mph - N/A   Clear